Blacksburg, VA

10:05 AM EDT on August 27, 2016 (GMT -0400)
Virginia Tech

Weather History for KBCB - March, 2013

Change the Weather History Date:

Friday, March 1, 2013

  Actual Average Record
Temperature  
Mean Temperature 33 °F 37 °F  
Max Temperature 36 °F 49 °F 72 °F (1972)
Min Temperature 29 °F 26 °F 10 °F (2002)
Degree Days  
Heating Degree Days 32 28  
Month to date heating degree days 32 28  
Since 1 July heating degree days 3892 4076  
Cooling Degree Days 0 0  
Month to date cooling degree days 0 0  
Year to date cooling degree days 0 0  
Moisture  
Dew Point 28 °F    
Average Humidity 77    
Maximum Humidity 89    
Minimum Humidity 64    
Precipitation  
Precipitation T in 0.09 in 1.07 in (1987)
Month to date precipitation T 0.09  
Year to date precipitation 9.10 5.98  
Snow  
Snow T in - - ()
Month to date snowfall T  
Since 1 July snowfall 17.6  
Snow Depth 0.00 in    
Sea Level Pressure  
Sea Level Pressure 29.85 in    
Wind  
Wind Speed 9 mph (WNW)    
Max Wind Speed 16 mph    
Max Gust Speed 22 mph    
Visibility 10 miles    
Events      
T = Trace of Precipitation, MM = Missing Value Source: NWS Daily Summary

Daily Weather History Graph

Daily Weather History Graph

Search for Another Location

Airport or City:

Trip Planner

Search our weather history database for the weather conditions in past years. The results will help you decide how hot, cold, wet, or windy it might be!

Date:

Astronomy

Mar. 01, 2013 Rise Set
Actual Time 6:52 AM EST 6:15 PM EST
Civil Twilight 6:26 AM EST 6:42 PM EST
Nautical Twilight 5:56 AM EST 7:12 PM EST
Astronomical Twilight 5:25 AM EST 7:42 PM EST
Moon 10:40 PM EST (3/1) 8:44 AM EST (3/1)
Length of Visible Light 12h 15m
Length of Day
11h 23m
Waning Gibbous, 83% of the Moon is Illuminated
Mar 1
Waning Gibbous
Mar 4
Last Quarter
Mar 11
New
Mar 19
First Quarter
Mar 27
Full

Hourly Weather History & Observations

Time (EST) Temp. Windchill Dew Point Humidity Pressure Visibility Wind Dir Wind Speed Gust Speed Precip Events Conditions
12:15 AM 33.8 °F 25.8 °F 30.2 °F 87% 29.82 in 10.0 mi WNW 10.4 mph 18.4 mph N/A   Overcast
12:35 AM 33.8 °F 25.8 °F 30.2 °F 87% 29.82 in 10.0 mi WNW 10.4 mph 17.3 mph N/A   Overcast
1:15 AM 33.8 °F 25.8 °F 30.2 °F 87% 29.82 in 10.0 mi WNW 10.4 mph 17.3 mph N/A   Overcast
1:35 AM 33.8 °F 26.4 °F 30.2 °F 87% 29.82 in 10.0 mi WNW 9.2 mph 17.3 mph N/A   Overcast
1:55 AM 33.8 °F 26.4 °F 30.2 °F 87% 29.81 in 10.0 mi WNW 9.2 mph - N/A   Overcast
2:15 AM 33.8 °F 26.4 °F 30.2 °F 87% 29.81 in 10.0 mi WNW 9.2 mph - N/A   Overcast
2:35 AM 33.8 °F 27.0 °F 30.2 °F 87% 29.80 in 10.0 mi WNW 8.1 mph - N/A   Overcast
2:55 AM 33.8 °F 25.8 °F 30.2 °F 87% 29.79 in 10.0 mi WNW 10.4 mph - N/A   Overcast
3:15 AM 33.8 °F 26.4 °F 30.2 °F 87% 29.79 in 10.0 mi WNW 9.2 mph - N/A   Overcast
3:35 AM 33.8 °F 27.0 °F 30.2 °F 87% 29.79 in 10.0 mi WNW 8.1 mph - N/A   Overcast
3:55 AM 33.8 °F 27.0 °F 30.2 °F 87% 29.80 in 10.0 mi WNW 8.1 mph - N/A   Overcast
4:35 AM 33.8 °F 27.7 °F 30.2 °F 87% 29.80 in 10.0 mi West 6.9 mph - N/A   Overcast
4:55 AM 33.8 °F 28.6 °F 30.2 °F 87% 29.80 in 10.0 mi WNW 5.8 mph - N/A   Overcast
5:15 AM 33.8 °F 28.6 °F 30.2 °F 87% 29.80 in 10.0 mi West 5.8 mph - N/A   Overcast
5:35 AM 33.8 °F 28.6 °F 30.2 °F 87% 29.81 in 10.0 mi WNW 5.8 mph - N/A   Overcast
5:55 AM 33.8 °F 27.7 °F 30.2 °F 87% 29.81 in 10.0 mi West 6.9 mph - N/A   Overcast
6:15 AM 33.8 °F 28.6 °F 30.2 °F 87% 29.82 in 10.0 mi West 5.8 mph - N/A   Overcast
6:35 AM 33.8 °F 28.6 °F 30.2 °F 87% 29.83 in 10.0 mi West 5.8 mph - N/A   Overcast
7:15 AM 33.8 °F 26.4 °F 30.2 °F 87% 29.84 in 10.0 mi West 9.2 mph - N/A   Overcast
7:35 AM 33.8 °F 28.6 °F 30.2 °F 87% 29.84 in 10.0 mi WNW 5.8 mph - N/A   Overcast
7:55 AM 35.6 °F 29.9 °F 30.2 °F 81% 29.84 in 10.0 mi West 6.9 mph - N/A   Overcast
8:15 AM 35.6 °F 30.7 °F 30.2 °F 81% 29.84 in 10.0 mi West 5.8 mph - N/A   Overcast
8:35 AM 35.6 °F 30.7 °F 30.2 °F 81% 29.84 in 10.0 mi West 5.8 mph - N/A   Overcast
8:55 AM 35.6 °F 29.2 °F 30.2 °F 81% 29.84 in 10.0 mi WNW 8.1 mph - N/A   Overcast
9:15 AM 35.6 °F 29.2 °F 30.2 °F 81% 29.85 in 10.0 mi NW 8.1 mph - N/A   Overcast
9:35 AM 35.6 °F 30.7 °F 28.4 °F 75% 29.85 in 10.0 mi WNW 5.8 mph - N/A   Overcast
10:15 AM 37.4 °F 29.3 °F 28.4 °F 70% 29.86 in 10.0 mi WNW 12.7 mph 17.3 mph N/A   Overcast
10:35 AM 37.4 °F 29.8 °F 28.4 °F 70% 29.85 in 10.0 mi WNW 11.5 mph 17.3 mph N/A   Overcast
11:15 AM 37.4 °F 30.3 °F 28.4 °F 70% 29.85 in 10.0 mi WNW 10.4 mph 20.7 mph N/A   Overcast
11:35 AM 37.4 °F 29.3 °F 28.4 °F 70% 29.85 in 10.0 mi WNW 12.7 mph 17.3 mph N/A   Overcast
12:15 PM 37.4 °F 29.8 °F 28.4 °F 70% 29.86 in 10.0 mi WNW 11.5 mph 17.3 mph N/A   Overcast
12:35 PM 37.4 °F 29.8 °F 28.4 °F 70% 29.85 in 10.0 mi WNW 11.5 mph 19.6 mph N/A   Overcast
12:55 PM 37.4 °F 28.2 °F 28.4 °F 70% 29.85 in 10.0 mi NW 16.1 mph 20.7 mph N/A   Overcast
1:15 PM 37.4 °F 29.8 °F 28.4 °F 70% 29.84 in 10.0 mi NW 11.5 mph 17.3 mph N/A   Overcast
1:35 PM 37.4 °F 32.1 °F 28.4 °F 70% 29.84 in 10.0 mi NW 6.9 mph - N/A   Overcast
1:55 PM 37.4 °F 29.8 °F 28.4 °F 70% 29.83 in 10.0 mi WNW 11.5 mph 21.9 mph N/A   Overcast
2:35 PM 35.6 °F 27.5 °F 28.4 °F 75% 29.84 in 10.0 mi NW 11.5 mph - N/A   Overcast
2:55 PM 35.6 °F 28.6 °F 28.4 °F 75% 29.84 in 10.0 mi WNW 9.2 mph 16.1 mph N/A   Overcast
3:15 PM 35.6 °F 27.1 °F 28.4 °F 75% 29.84 in 10.0 mi NW 12.7 mph 17.3 mph N/A   Overcast
3:35 PM 35.6 °F 27.5 °F 28.4 °F 75% 29.84 in 10.0 mi NW 11.5 mph 24.2 mph N/A   Overcast
3:55 PM 37.4 °F 30.3 °F 26.6 °F 65% 29.84 in 10.0 mi NW 10.4 mph - N/A   Overcast
4:15 PM 37.4 °F 30.3 °F 26.6 °F 65% 29.84 in 10.0 mi WNW 10.4 mph 19.6 mph N/A   Overcast
4:35 PM 35.6 °F 27.5 °F 26.6 °F 70% 29.84 in 10.0 mi NW 11.5 mph 24.2 mph N/A   Overcast
4:55 PM 35.6 °F 28.6 °F 26.6 °F 70% 29.84 in 10.0 mi NW 9.2 mph 18.4 mph N/A   Overcast
5:15 PM 35.6 °F 29.2 °F 26.6 °F 70% 29.85 in 10.0 mi WNW 8.1 mph - N/A   Overcast
5:35 PM 35.6 °F 27.5 °F 26.6 °F 70% 29.85 in 10.0 mi NW 11.5 mph 16.1 mph N/A   Overcast
5:55 PM 35.6 °F 27.5 °F 26.6 °F 70% 29.86 in 10.0 mi NW 11.5 mph 17.3 mph N/A   Overcast
6:15 PM 35.6 °F 28.0 °F 26.6 °F 70% 29.86 in 10.0 mi NW 10.4 mph 17.3 mph N/A   Overcast
6:35 PM 35.6 °F 27.5 °F 26.6 °F 70% 29.88 in 10.0 mi NW 11.5 mph - N/A   Overcast
6:55 PM 35.6 °F 30.7 °F 26.6 °F 70% 29.88 in 10.0 mi NW 5.8 mph - N/A   Overcast
7:15 PM 33.8 °F 27.7 °F 26.6 °F 75% 29.89 in 10.0 mi WNW 6.9 mph - N/A   Overcast
7:35 PM 33.8 °F 28.6 °F 26.6 °F 75% 29.89 in 10.0 mi WNW 5.8 mph - N/A   Overcast
7:55 PM 33.8 °F 27.7 °F 26.6 °F 75% 29.89 in 10.0 mi WNW 6.9 mph - N/A   Overcast
8:15 PM 33.8 °F 27.7 °F 26.6 °F 75% 29.88 in 10.0 mi WNW 6.9 mph - N/A   Overcast
8:35 PM 33.8 °F 27.0 °F 26.6 °F 75% 29.88 in 10.0 mi WNW 8.1 mph - N/A   Overcast
8:55 PM 33.8 °F 25.8 °F 26.6 °F 75% 29.88 in 10.0 mi NW 10.4 mph - N/A   Mostly Cloudy
9:15 PM 33.8 °F 27.0 °F 26.6 °F 75% 29.89 in 10.0 mi WNW 8.1 mph - N/A   Mostly Cloudy
9:35 PM 33.8 °F 28.6 °F 26.6 °F 75% 29.89 in 10.0 mi WNW 5.8 mph - N/A   Mostly Cloudy
9:55 PM 33.8 °F 27.0 °F 26.6 °F 75% 29.89 in 10.0 mi WNW 8.1 mph - N/A   Overcast
10:15 PM 33.8 °F 25.8 °F 26.6 °F 75% 29.88 in 10.0 mi NW 10.4 mph - N/A   Overcast
10:35 PM 33.8 °F 27.0 °F 26.6 °F 75% 29.88 in 10.0 mi NW 8.1 mph - N/A   Overcast
10:55 PM 33.8 °F 28.6 °F 26.6 °F 75% 29.89 in 10.0 mi WNW 5.8 mph - N/A   Overcast
11:15 PM 33.8 °F 27.7 °F 26.6 °F 75% 29.89 in 10.0 mi NNW 6.9 mph - N/A   Overcast
11:35 PM 33.8 °F 27.0 °F 26.6 °F 75% 29.89 in 10.0 mi NW 8.1 mph - N/A   Overcast
11:55 PM 33.8 °F 25.8 °F 26.6 °F 75% 29.88 in 10.0 mi NW 10.4 mph - N/A   Overcast